Location: Newark
(55.1225°N, 33.2808°E)
Time: 11:16:18
(UTC+00:00)

ISS - Pass Details

Date: 25 September 2019
Orbit: 411 x 421 km, 51.6° (Epoch: 20 October)

Event Time Altitude Azimuth Distance (km) Brightness Sun altitude
Rises 18:34:46 0° 264° (W) 2,345 0.7 -24.3°
Reaches altitude 10° 18:36:54 10° 258° (WSW) 1,483 -0.5 -24.5°
Enters shadow 18:37:56 18° 251° (WSW) 1,087 -1.4 -24.6°
